星链-34306 (STARLINK-34306)

导读 | 豆包AI

STARLINK-34306是美国SpaceX公司星链星座的成员卫星,于2025年6月4日成功发射,运行在近地轨道,属于星链全球卫星互联网组网部署的一部分。星链项目计划构建由数万颗低轨卫星组成的通信网络,该卫星将助力为偏远及基础设施缺失区域提供高速低延迟的宽带互联网服务,同时扩充星链星座覆盖能力,不过该项目的持续扩张也引发了关于太空轨道拥堵与天文观测影响的争议。

基本信息
目录编号:
64259
目录名称:
STARLINK-34306
国际标识:
2025-120D
轨道中心:
EARTH
卫星名称:
星链-34306
卫星全名:
星链-34306 (STARLINK-34306)
卫星状态:
在轨 (已飞行283 天)
发射日期:
2025-06-04 UTC
国别 :
美国 (US)
星等 :
--
轨道信息
数据来源 国际轨道数据
星历时间: 2026-03-14T14:53:27+0800
11小时前
查看轨道信息
半长轴: 6853.228km
偏心率: 0.0000375
轨道倾角: 53.158°
近地点辐角 106.773°
升交点赤经 95.082°
平近点角 253.331°
近地点: 474.834km
远地点: 475.348km
周期: 94.103分钟
每日圈数: 15.302416
详细信息
固有亮度:
5
最大亮度:
2.5
卫星平台:
Starlink V1.0
覆盖范围:
全球
运营商:
太空探索技术公司
运营商所在国:
美国
制造商(研发单位):
太空探索技术公司
制造商所在国:
美国
使用方式:
暂无
卫星简介
Starlink 计划是 SpaceX 推出的全球卫星互联网项目,通过发射低轨道卫星,为全球尤其是偏远地区提供高速、低延迟的互联网服务。自 2019 年起,Starlink 已部署数千颗卫星,旨在缩小全球数字鸿沟,推动互联网普及。该项目还为军事、航空等行业提供通信支持,带来广泛经济效益。
2D轨道图
3D轨道图
轨道高度分析图
轨道倾角分析图
轨道综合分析图
查看轨道综合分析图